[[{"header":{"parameterUnit":"m.s-1","parameterCategory":2,"la1":30.2991,"la2":30.254,"lo1":-89.0895,"lo2":-89.0444,"dy":0.0017,"dx":0.0017,"nx":28,"ny":28,"refTime":"2024-07-30T03:00:00:Z","depth":"0","parameterNumber":2,"parameterNumberName":"U-component_of_CURRENTS"},"data":[0,0,0,0,0,0,0,0,0,0,0,0,0,0,0,0,0,0,0,0,0,0,0,0,0,0,0,0,0,0,0,0,0,0,0,0,0,0,0,0,0,0,0,0,0,0,0,0,0,0,0,0,0,0,0,0,0,0,-0.094,-0.094,0,-0.0973,-0.0973,-0.0974,-0.0912,-0.091,-0.0908,-0.0906,-0.0862,-0.0863,-0.0863,0,0,0,0,0,0,0,0,0,0,0,0,0,-0.0861,-0.0862,-0.094,-0.094,-0.0941,-0.0973,-0.0973,-0.0974,-0.0913,-0.091,-0.0908,-0.0905,-0.0862,-0.0863,-0.0864,0,0,0,0,0,0,0,0,0,0,0,0,0,-0.0894,-0.0863,-0.094,-0.0914,-0.0912,-0.0973,-0.0973,-0.0974,-0.0913,-0.091,-0.0907,-0.0904,-0.0862,-0.0863,-0.0864,-0.0931,0,0,-0.0867,-0.0867,0,0,0,0,0,0,0,0,-0.0892,-0.0897,-0.0918,-0.0916,-0.0914,-0.0936,-0.0929,-0.0956,-0.0914,-0.0913,-0.0906,-0.0903,-0.0882,-0.0881,-0.0895,-0.0929,-0.0927,-0.0867,-0.0868,-0.0868,-0.0868,0,0,0,0,0,0,0,-0.089,-0.0896,-0.0953,-0.0918,-0.0916,-0.0914,-0.0915,-0.0934,-0.0912,-0.0912,-0.0908,-0.0913,-0.088,-0.0894,-0.0893,-0.0926,-0.0867,-0.0868,-0.0868,-0.0869,-0.0954,-0.0956,0,0,0,0,0,0,-0.0889,-0.0894,-0.0952,-0.0954,-0.0896,-0.0918,-0.0919,-0.0932,-0.0914,-0.0909,-0.0916,-0.091,-0.0894,-0.0892,-0.0891,-0.0919,-0.0868,-0.0869,-0.087,-0.0953,-0.0955,-0.0957,0,0,0,0,0,0,-0.0887,-0.0894,-0.095,-0.0924,-0.0931,-0.0922,-0.0937,-0.0934,-0.094,-0.0917,-0.091,-0.0923,-0.0891,-0.089,-0.0907,-0.0918,-0.0869,-0.087,-0.0951,-0.0953,-0.0956,-0.1007,0,0,0,0,0,0,-0.0885,-0.0893,-0.0906,-0.0924,-0.0932,-0.0989,-0.094,-0.0937,-0.0948,-0.0941,-0.0922,-0.0915,-0.0889,-0.0905,-0.0908,-0.0919,-0.0871,-0.0949,-0.0952,-0.0955,-0.1003,-0.1011,-0.1017,0,0,0,0,0,-0.0882,-0.0927,-0.0907,-0.0914,-0.0949,-0.0991,-0.0996,-0.0978,-0.0951,-0.0969,-0.095,-0.0915,-0.0925,-0.0909,-0.0911,-0.0922,-0.0947,-0.0951,-0.0955,-0.1,-0.1009,-0.1017,0,0,0,0,0,0,-0.0913,-0.0926,-0.0904,-0.0952,-0.0964,-0.098,-0.1007,-0.099,-0.0995,-0.0982,-0.0948,-0.0942,-0.0956,-0.0947,-0.0929,-0.0957,-0.0927,-0.0931,-0.0961,-0.0969,-0.0976,-0.097,-0.0872,0,0,0,0,0,-0.0924,-0.0946,-0.0958,-0.0992,-0.1008,-0.1006,-0.1021,-0.1007,-0.1012,-0.101,-0.0993,-0.098,-0.0981,-0.0979,-0.0979,-0.1011,-0.0956,-0.1018,-0.1025,-0.1031,-0.1029,-0.1003,-0.1007,-0.0969,-0.0969,-0.0969,0,0,-0.0946,-0.0954,-0.0967,-0.0998,-0.101,-0.1037,-0.1009,-0.104,-0.1043,-0.1008,-0.1017,-0.1009,-0.0996,-0.1015,-0.102,-0.1004,-0.1,-0.1035,-0.104,-0.1035,-0.1007,-0.1011,-0.1014,-0.0971,-0.0971,-0.097,0,0,-0.0994,-0.1011,-0.1037,-0.1054,-0.1071,-0.1075,-0.1084,-0.1098,-0.1087,-0.1109,-0.1071,-0.1073,-0.1086,-0.1068,-0.1063,-0.1119,-0.1039,-0.112,-0.1149,-0.1125,-0.1128,-0.1129,-0.0998,-0.0988,-0.1123,-0.1123,-0.1123,0,-0.1013,-0.1041,-0.1055,-0.1083,-0.1093,-0.1091,-0.1115,-0.1126,-0.1132,-0.1124,-0.1115,-0.1116,-0.1108,-0.111,-0.1128,-0.1132,-0.1073,-0.1114,-0.1132,-0.1133,-0.1133,-0.1,-0.0987,-0.1126,-0.1125,-0.1125,-0.1125,0,-0.1068,-0.1089,-0.112,-0.1135,-0.1156,-0.1188,-0.1193,-0.1203,-0.1192,-0.1183,-0.1186,-0.1183,-0.1166,-0.118,-0.1175,-0.1178,-0.1113,-0.1141,-0.1104,-0.114,-0.0996,-0.0982,-0.113,-0.1129,-0.1128,-0.1127,0,0,-0.1096,-0.1143,-0.1145,-0.1138,-0.1179,-0.1189,-0.1221,-0.1228,-0.1198,-0.1235,-0.1196,-0.1244,-0.1221,-0.1215,-0.1202,-0.1203,-0.1144,-0.1183,-0.118,-0.1038,-0.1007,-0.0827,-0.0793,-0.1182,-0.1182,-0.1181,-0.088,0,-0.1119,-0.1157,-0.118,-0.12,-0.1216,-0.1227,-0.1235,-0.1238,-0.1225,-0.119,-0.1211,-0.1171,-0.1238,-0.1196,-0.1227,-0.1149,-0.1122,-0.1217,-0.1006,-0.0997,-0.0824,-0.0779,-0.0736,-0.0455,-0.0866,-0.0863,-0.0862,0,-0.1136,-0.1159,-0.1188,-0.1182,-0.1189,-0.1204,-0.1176,-0.1177,-0.1158,-0.1139,-0.1145,-0.112,-0.1106,-0.1156,-0.1083,-0.1138,-0.1085,-0.1046,-0.1034,-0.0843,-0.0795,-0.0501,-0.0414,-0.0427,-0.084,-0.0841,-0.0843,0,-0.1095,-0.1139,-0.1148,-0.1161,-0.1183,-0.1184,-0.1182,-0.1166,-0.1103,-0.108,-0.1002,-0.1028,-0.0949,-0.0967,-0.089,-0.0978,-0.0765,-0.0863,-0.0644,-0.0625,-0.0533,-0.0508,-0.0427,-0.0819,-0.082,-0.0821,-0.0822,0,-0.1085,-0.108,-0.113,-0.1137,-0.1101,-0.1141,-0.1074,-0.107,-0.1007,-0.0903,-0.0953,-0.085,-0.0907,-0.0792,-0.0807,-0.062,-0.0684,-0.0606,-0.0545,-0.054,-0.0521,-0.0484,-0.0593,-0.0809,-0.0812,-0.0814,-0.0816,0,-0.1005,-0.1059,-0.1051,-0.1086,-0.1079,-0.1046,-0.0975,-0.0904,-0.0876,-0.0728,-0.0697,-0.0646,-0.0509,-0.0486,-0.0412,-0.0416,-0.0306,-0.0241,-0.0165,-0.0103,0.0044,-0.0071,0.0002,0.0013,0.0043,0.0049,0.0054,0,-0.0956,-0.0956,-0.0973,-0.0948,-0.096,-0.0917,-0.0857,-0.0832,-0.0749,-0.0594,-0.0503,-0.033,-0.0214,0.0015,0.0044,0.0162,-0.0012,0.0282,0.0079,0.011,0.0024,-0.0146,-0.016,0.0214,0.022,0.0225,0.0229,0,-0.0836,-0.0851,-0.0842,-0.0808,-0.0767,-0.0691,-0.0628,-0.0547,-0.0488,-0.0381,-0.0219,-0.011,0.0133,0.0266,0.0457,0.0485,0.023,0.0392,0.0356,0.0128,0.0009,0.0033,0.0027,0.0273,0.0268,0.0265,0.0263,0.0261,-0.0707,-0.0669,-0.0668,-0.0619,-0.0571,-0.0486,-0.042,-0.0356,-0.0231,-0.0086,-0.0019,0.0129,0.0344,0.0592,0.068,0.0814,0.0586,0.0726,0.0591,0.0425,0.0387,0.0555,0.0892,0.0891,0.089,0.089,0.0889,0,-0.053,-0.0512,-0.0466,-0.0422,-0.0345,-0.0365,-0.0262,-0.0212,-0.01,0.0024,0.0143,0.0365,0.0588,0.0753,0.0964,0.0976,0.0828,0.0916,0.0613,0.0594,0.0728,0.0688,0.1077,0.1077,0.1077,0.1077,0.1077,0.1077,-0.0433,-0.035,-0.0347,-0.0212,-0.0191,-0.0097,-0.0052,-0.0003,0.0055,0.0203,0.0305,0.0407,0.059,0.0808,0.0962,0.0969,0.0776,0.0727,0.0661,0.0674,0.0642,0.0611,0.0553,0.0907,0.0906,0.0534,0.0531,0.0528]},{"header":{"parameterUnit":"m.s-1","parameterCategory":2,"la1":30.2991,"la2":30.254,"lo1":-89.0895,"lo2":-89.0444,"dy":0.0017,"dx":0.0017,"nx":28,"ny":28,"refTime":"2024-07-30T03:00:00:Z","depth":"0","parameterNumber":3,"parameterNumberName":"V-component_of_CURRENTS"},"data":[0,0,0,0,0,0,0,0,0,0,0,0,0,0,0,0,0,0,0,0,0,0,0,0,0,0,0,0,0,0,0,0,0,0,0,0,0,0,0,0,0,0,0,0,0,0,0,0,0,0,0,0,0,0,0,0,0,0,-0.0467,-0.0468,0,-0.048,-0.048,-0.048,-0.0432,-0.0431,-0.043,-0.0429,-0.0368,-0.0368,-0.0367,0,0,0,0,0,0,0,0,0,0,0,0,0,-0.0342,-0.0344,-0.0467,-0.0468,-0.0469,-0.0481,-0.048,-0.048,-0.0432,-0.0431,-0.043,-0.0428,-0.0369,-0.0368,-0.0367,0,0,0,0,0,0,0,0,0,0,0,0,0,-0.0375,-0.0345,-0.0467,-0.045,-0.0449,-0.0481,-0.048,-0.048,-0.0432,-0.0431,-0.0429,-0.0428,-0.0369,-0.0368,-0.0367,-0.039,0,0,-0.0364,-0.0363,0,0,0,0,0,0,0,0,-0.0373,-0.0379,-0.0452,-0.0451,-0.045,-0.0457,-0.0414,-0.0448,-0.0433,-0.0433,-0.0429,-0.0427,-0.0396,-0.0392,-0.0392,-0.0387,-0.0384,-0.0363,-0.0363,-0.0362,-0.0362,0,0,0,0,0,0,0,-0.0371,-0.0378,-0.0467,-0.0453,-0.0452,-0.0421,-0.0424,-0.042,-0.0417,-0.0433,-0.0431,-0.0441,-0.0394,-0.0393,-0.039,-0.0383,-0.0364,-0.0363,-0.0362,-0.0362,-0.0353,-0.0353,0,0,0,0,0,0,-0.0385,-0.0377,-0.0467,-0.0468,-0.0413,-0.0426,-0.0429,-0.0452,-0.0419,-0.0414,-0.0442,-0.0439,-0.0396,-0.0391,-0.0388,-0.0375,-0.0362,-0.0361,-0.0361,-0.0353,-0.0353,-0.0353,0,0,0,0,0,0,-0.0383,-0.0394,-0.0467,-0.0425,-0.0433,-0.043,-0.0457,-0.0454,-0.045,-0.0427,-0.042,-0.0441,-0.0394,-0.0389,-0.0378,-0.0373,-0.0361,-0.036,-0.0352,-0.0353,-0.0353,-0.0373,0,0,0,0,0,0,-0.0379,-0.0393,-0.0411,-0.0427,-0.0436,-0.049,-0.0458,-0.0455,-0.0461,-0.0456,-0.0425,-0.0418,-0.0393,-0.038,-0.0377,-0.0372,-0.0359,-0.0352,-0.0352,-0.0353,-0.0372,-0.0375,-0.0377,0,0,0,0,0,-0.0375,-0.0417,-0.0412,-0.0423,-0.0464,-0.0492,-0.0493,-0.0481,-0.0462,-0.0469,-0.0441,-0.0418,-0.0382,-0.038,-0.0377,-0.037,-0.0351,-0.0352,-0.0353,-0.0371,-0.0374,-0.0377,0,0,0,0,0,0,-0.0372,-0.0417,-0.0412,-0.0465,-0.0476,-0.0485,-0.0499,-0.0488,-0.0473,-0.0463,-0.0429,-0.0421,-0.041,-0.0394,-0.0393,-0.0371,-0.0362,-0.0362,-0.0377,-0.0379,-0.0381,-0.0361,-0.0358,0,0,0,0,0,-0.0383,-0.0426,-0.0448,-0.0488,-0.0498,-0.0496,-0.0505,-0.0497,-0.0491,-0.0483,-0.0458,-0.0432,-0.0415,-0.04,-0.0388,-0.038,-0.0327,-0.0373,-0.0375,-0.0377,-0.0359,-0.0269,-0.026,-0.0356,-0.0356,-0.0356,0,0,-0.0395,-0.0424,-0.0448,-0.049,-0.0496,-0.0512,-0.0496,-0.0517,-0.0518,-0.048,-0.0467,-0.0446,-0.0418,-0.0404,-0.0397,-0.0386,-0.0328,-0.0378,-0.038,-0.0361,-0.0268,-0.0258,-0.0249,-0.0357,-0.0357,-0.0357,0,0,-0.0431,-0.0463,-0.0499,-0.0511,-0.0532,-0.0534,-0.0541,-0.0546,-0.0535,-0.0536,-0.0497,-0.0464,-0.0457,-0.0413,-0.0396,-0.0405,-0.0349,-0.0413,-0.0396,-0.0309,-0.0299,-0.029,-0.0228,-0.0213,-0.0405,-0.0405,-0.0405,0,-0.0434,-0.0482,-0.0511,-0.0535,-0.0538,-0.0544,-0.0554,-0.056,-0.0553,-0.0526,-0.0537,-0.0469,-0.0454,-0.0396,-0.0402,-0.0406,-0.0356,-0.0388,-0.0309,-0.0298,-0.0288,-0.0227,-0.021,-0.0406,-0.0406,-0.0406,-0.0405,0,-0.0489,-0.0512,-0.0536,-0.0564,-0.0572,-0.0591,-0.0595,-0.059,-0.058,-0.056,-0.0514,-0.0486,-0.0426,-0.0431,-0.0425,-0.0346,-0.0336,-0.0327,-0.0296,-0.0279,-0.0217,-0.0198,-0.0407,-0.0407,-0.0407,-0.0406,0,0,-0.0527,-0.0563,-0.0568,-0.0549,-0.0581,-0.0579,-0.0593,-0.0575,-0.0527,-0.0538,-0.0466,-0.0458,-0.0414,-0.0391,-0.0363,-0.0301,-0.0209,-0.0289,-0.0284,-0.0217,-0.0024,-0.0067,-0.0051,-0.018,-0.0177,-0.0174,-0.0015,0,-0.0547,-0.0578,-0.0595,-0.0587,-0.0589,-0.0581,-0.0568,-0.0548,-0.0524,-0.046,-0.0432,-0.0369,-0.0409,-0.0357,-0.0307,-0.0234,-0.0159,-0.0253,-0.0059,-0.0053,-0.0083,-0.0031,-0.0003,0.0137,0.0003,0.0007,0.0009,0,-0.0586,-0.0595,-0.0603,-0.0548,-0.0543,-0.0535,-0.0467,-0.0455,-0.0392,-0.0364,-0.0313,-0.0282,-0.0215,-0.0236,-0.0104,-0.0163,-0.0088,-0.0038,-0.003,-0.0043,-0.0061,0.0102,0.0176,0.0243,0.0037,0.0035,0.0033,0,-0.0579,-0.0579,-0.0573,-0.0569,-0.0536,-0.0506,-0.0474,-0.0417,-0.0359,-0.0288,-0.0225,-0.0166,-0.0108,-0.0031,0.0002,-0.0018,0.0153,0.0151,0.019,0.0187,0.0263,0.0261,0.0439,0.0295,0.0295,0.0295,0.0294,0,-0.0588,-0.0568,-0.0558,-0.0552,-0.0481,-0.0469,-0.0369,-0.0336,-0.0249,-0.0155,-0.0158,-0.008,-0.0049,0.0021,0.006,0.0152,0.0202,0.0216,0.024,0.025,0.0244,0.0345,0.036,0.0301,0.0299,0.0298,0.0297,0,-0.0572,-0.0585,-0.0553,-0.0512,-0.048,-0.0427,-0.0305,-0.0219,-0.017,-0.0048,-0.0023,0.0017,0.0079,0.0102,0.0228,0.0238,0.0383,0.036,0.0338,0.0355,0.0434,0.0445,0.0642,0.0729,0.0459,0.0459,0.0459,0,-0.0557,-0.0558,-0.0515,-0.0472,-0.0446,-0.0355,-0.027,-0.0191,-0.0104,0.0009,0.0074,0.0139,0.0193,0.0298,0.0315,0.0389,0.0438,0.047,0.0439,0.0464,0.0496,0.0493,0.0554,0.0538,0.0538,0.0539,0.054,0,-0.0516,-0.052,-0.0494,-0.0419,-0.0338,-0.0223,-0.0111,-0.0041,0.0056,0.0141,0.0222,0.0265,0.0325,0.0372,0.042,0.0462,0.0527,0.0484,0.0558,0.0614,0.0585,0.0669,0.0379,0.0545,0.0544,0.0544,0.0544,0.0543,-0.0464,-0.0443,-0.0417,-0.0333,-0.0239,-0.011,-0.0017,0.0087,0.021,0.0332,0.0328,0.0402,0.0463,0.0513,0.0545,0.0612,0.0606,0.0655,0.0681,0.0687,0.0731,0.0414,0.0558,0.0557,0.0557,0.0557,0.0556,0,-0.0384,-0.0369,-0.0309,-0.0211,-0.0095,-0.0061,0.009,0.0171,0.029,0.0391,0.0454,0.0574,0.0628,0.0666,0.0721,0.0799,0.0863,0.084,0.0888,0.0956,0.074,0.0699,0.0822,0.0822,0.0822,0.0821,0.0821,0.0821,-0.0334,-0.028,-0.0265,-0.009,-0.0019,0.0128,0.0202,0.0293,0.037,0.0522,0.0616,0.0695,0.0794,0.08,0.0902,0.095,0.1103,0.1066,0.1147,0.1008,0.0994,0.098,0.0948,0.112,0.112,0.1388,0.139,0.1392]}],[{"header":{"parameterUnit":"m.s-1","parameterCategory":2,"la1":30.2991,"la2":30.254,"lo1":-89.0895,"lo2":-89.0444,"dy":0.0017,"dx":0.0017,"nx":28,"ny":28,"refTime":"2024-07-30T03:00:00:Z","depth":"2","parameterNumber":2,"parameterNumberName":"U-component_of_CURRENTS"},"data":[0,0,0,0,0,0,0,0,0,0,0,0,0,0,0,0,0,0,0,0,0,0,0,0,0,0,0,0,0,0,0,0,0,0,0,0,0,0,0,0,0,0,0,0,0,0,0,0,0,0,0,0,0,0,0,0,0,0,-0.2661,-0.2663,0,-0.2715,-0.2715,-0.2715,-0.2566,-0.2562,-0.2558,-0.2554,-0.236,-0.2359,-0.2357,0,0,0,0,0,0,0,0,0,0,0,0,0,-0.2292,-0.23,-0.2661,-0.2663,-0.2664,-0.2715,-0.2715,-0.2715,-0.2567,-0.2562,-0.2557,-0.2553,-0.2361,-0.2359,-0.2357,0,0,0,0,0,0,0,0,0,0,0,0,0,-0.2403,-0.2303,-0.2661,-0.2602,-0.2597,-0.2715,-0.2715,-0.2715,-0.2568,-0.2562,-0.2556,-0.255,-0.2362,-0.2359,-0.2357,-0.2461,0,0,-0.235,-0.2349,0,0,0,0,0,0,0,0,-0.2397,-0.2416,-0.2609,-0.2606,-0.2602,-0.2634,-0.2514,-0.262,-0.2569,-0.2571,-0.2554,-0.2548,-0.2438,-0.243,-0.2446,-0.2452,-0.2444,-0.235,-0.2349,-0.2348,-0.2347,0,0,0,0,0,0,0,-0.239,-0.2412,-0.2675,-0.2611,-0.2607,-0.2525,-0.2535,-0.2533,-0.2527,-0.2571,-0.2562,-0.2581,-0.2432,-0.2448,-0.2439,-0.2441,-0.235,-0.2348,-0.2347,-0.2346,-0.2296,-0.2296,0,0,0,0,0,0,-0.2414,-0.2408,-0.2673,-0.2677,-0.2491,-0.2538,-0.2548,-0.2624,-0.2532,-0.2517,-0.2587,-0.2575,-0.2455,-0.2442,-0.2432,-0.2292,-0.2348,-0.2346,-0.2344,-0.2296,-0.2296,-0.2296,0,0,0,0,0,0,-0.2407,-0.244,-0.2671,-0.2544,-0.2568,-0.2552,-0.2637,-0.2628,-0.2604,-0.2548,-0.2525,-0.2567,-0.245,-0.2435,-0.2397,-0.2292,-0.2345,-0.2342,-0.2296,-0.2296,-0.2296,-0.2178,0,0,0,0,0,0,-0.2398,-0.2439,-0.2475,-0.2549,-0.2577,-0.2692,-0.2643,-0.2634,-0.2631,-0.2614,-0.2526,-0.2503,-0.2444,-0.2401,-0.2395,-0.229,-0.2341,-0.2296,-0.2296,-0.2296,-0.2182,-0.2174,-0.2167,0,0,0,0,0,-0.2385,-0.2452,-0.2478,-0.2508,-0.264,-0.2693,-0.2698,-0.2659,-0.2636,-0.2616,-0.2572,-0.2504,-0.2394,-0.2402,-0.2394,-0.2285,-0.2296,-0.2296,-0.2296,-0.2185,-0.2175,-0.2167,0,0,0,0,0,0,-0.2304,-0.2448,-0.2475,-0.2583,-0.2618,-0.2669,-0.2658,-0.2667,-0.263,-0.2597,-0.2539,-0.2516,-0.242,-0.2423,-0.2433,-0.2281,-0.2322,-0.2321,-0.224,-0.2231,-0.2224,-0.2189,-0.2339,0,0,0,0,0,-0.2322,-0.241,-0.2507,-0.2586,-0.2604,-0.2641,-0.2654,-0.2644,-0.2642,-0.2618,-0.2559,-0.2501,-0.2434,-0.2389,-0.2339,-0.2303,-0.2283,-0.2225,-0.2217,-0.2211,-0.2184,-0.2154,-0.2139,-0.2297,-0.2297,-0.2297,0,0,-0.2295,-0.2405,-0.2438,-0.2573,-0.2596,-0.2597,-0.2627,-0.2647,-0.2601,-0.2608,-0.2504,-0.2475,-0.2425,-0.2331,-0.2289,-0.2307,-0.2147,-0.2211,-0.2204,-0.2181,-0.2152,-0.2136,-0.2122,-0.2297,-0.2297,-0.2297,0,0,-0.23,-0.2401,-0.2456,-0.249,-0.2558,-0.2565,-0.257,-0.2605,-0.2554,-0.2535,-0.2473,-0.2411,-0.2354,-0.2258,-0.2216,-0.217,-0.2111,-0.2141,-0.206,-0.2031,-0.2016,-0.2003,-0.1906,-0.1885,-0.2134,-0.2134,-0.2134,0,-0.2266,-0.2349,-0.2463,-0.2511,-0.2477,-0.2542,-0.2501,-0.2506,-0.2507,-0.2458,-0.2472,-0.2355,-0.2304,-0.2161,-0.2113,-0.2135,-0.2106,-0.2082,-0.2015,-0.2002,-0.1991,-0.1895,-0.1873,-0.2128,-0.2129,-0.213,-0.213,0,-0.23,-0.2323,-0.2344,-0.2407,-0.2401,-0.2377,-0.239,-0.2372,-0.2345,-0.2332,-0.2221,-0.2198,-0.2119,-0.2081,-0.2071,-0.1937,-0.1933,-0.2005,-0.2022,-0.1967,-0.187,-0.185,-0.212,-0.2122,-0.2124,-0.2125,0,0,-0.2288,-0.2346,-0.2332,-0.2288,-0.231,-0.2301,-0.2242,-0.2177,-0.2125,-0.2121,-0.2022,-0.1923,-0.1934,-0.1891,-0.1868,-0.1833,-0.1701,-0.1872,-0.1873,-0.1744,-0.1578,-0.1479,-0.1447,-0.1768,-0.1765,-0.1763,-0.1522,0,-0.2227,-0.2228,-0.2261,-0.2146,-0.2099,-0.2106,-0.2036,-0.2006,-0.1983,-0.1927,-0.1903,-0.1811,-0.1853,-0.1803,-0.1775,-0.1728,-0.1652,-0.1756,-0.1677,-0.1673,-0.1568,-0.1423,-0.1438,-0.1218,-0.1502,-0.1499,-0.1497,0,-0.2198,-0.2191,-0.2072,-0.1969,-0.1944,-0.1894,-0.1767,-0.1729,-0.1706,-0.1691,-0.1657,-0.1662,-0.1558,-0.1651,-0.1527,-0.1595,-0.1554,-0.1541,-0.1534,-0.1467,-0.1537,-0.1335,-0.1171,-0.1463,-0.1466,-0.1468,-0.147,0,-0.2064,-0.2017,-0.1881,-0.1853,-0.1795,-0.1723,-0.1678,-0.1646,-0.158,-0.1546,-0.1519,-0.1457,-0.1399,-0.139,-0.1358,-0.1433,-0.1246,-0.136,-0.1214,-0.1205,-0.1212,-0.1208,-0.1254,-0.1254,-0.1255,-0.1256,-0.1256,0,-0.1947,-0.1829,-0.1819,-0.1747,-0.1593,-0.1607,-0.1463,-0.145,-0.1412,-0.1334,-0.1385,-0.1321,-0.134,-0.1266,-0.1277,-0.1141,-0.1173,-0.1128,-0.1124,-0.1167,-0.1162,-0.1405,-0.1426,-0.1246,-0.1248,-0.125,-0.1252,0,-0.1787,-0.1775,-0.1632,-0.1554,-0.1528,-0.1424,-0.1339,-0.1287,-0.1267,-0.1182,-0.1156,-0.1145,-0.1048,-0.1038,-0.0966,-0.098,-0.0908,-0.0853,-0.0854,-0.0853,-0.0901,-0.092,-0.065,-0.0645,-0.064,-0.0636,-0.0632,0,-0.168,-0.1601,-0.1497,-0.1428,-0.1378,-0.1271,-0.1227,-0.1201,-0.117,-0.1083,-0.1048,-0.0917,-0.0876,-0.0708,-0.0668,-0.0577,-0.0687,-0.0529,-0.0679,-0.0808,-0.0833,-0.0859,-0.0883,-0.0622,-0.0619,-0.0617,-0.0614,0,-0.1452,-0.1428,-0.1343,-0.1247,-0.117,-0.1088,-0.1038,-0.0991,-0.0983,-0.0946,-0.0878,-0.0827,-0.0659,-0.0569,-0.0414,-0.0407,-0.0558,-0.0466,-0.0585,-0.0781,-0.0765,-0.0796,-0.0824,-0.0591,-0.0593,-0.0595,-0.0596,-0.0597,-0.1282,-0.119,-0.1124,-0.1022,-0.0961,-0.0906,-0.0851,-0.0863,-0.0805,-0.0753,-0.075,-0.0652,-0.0621,-0.0366,-0.0317,-0.0237,-0.0298,-0.0357,-0.0373,-0.039,-0.0438,-0.0416,-0.0179,-0.0179,-0.0179,-0.0179,-0.0179,0,-0.1077,-0.1005,-0.0906,-0.0799,-0.0745,-0.0758,-0.0729,-0.0723,-0.0705,-0.0632,-0.0602,-0.0485,-0.04,-0.0304,-0.0151,-0.0135,-0.0229,-0.0142,-0.0304,-0.0327,-0.0347,-0.0401,-0.0127,-0.0127,-0.0126,-0.0126,0,0,-0.0955,-0.0825,-0.0799,-0.0631,-0.0583,-0.0516,-0.0514,-0.0535,-0.05,-0.0441,-0.0348,-0.0361,-0.03,-0.0205,-0.0212,-0.0123,-0.0228,-0.0121,-0.0171,-0.0384,-0.0404,-0.0479,-0.0586,0,0,0,0,0]},{"header":{"parameterUnit":"m.s-1","parameterCategory":2,"la1":30.2991,"la2":30.254,"lo1":-89.0895,"lo2":-89.0444,"dy":0.0017,"dx":0.0017,"nx":28,"ny":28,"refTime":"2024-07-30T03:00:00:Z","depth":"2","parameterNumber":3,"parameterNumberName":"V-component_of_CURRENTS"},"data":[0,0,0,0,0,0,0,0,0,0,0,0,0,0,0,0,0,0,0,0,0,0,0,0,0,0,0,0,0,0,0,0,0,0,0,0,0,0,0,0,0,0,0,0,0,0,0,0,0,0,0,0,0,0,0,0,0,0,0.0191,0.0192,0,0.0348,0.035,0.0352,0.0357,0.0356,0.0354,0.0352,0.0379,0.0382,0.0384,0,0,0,0,0,0,0,0,0,0,0,0,0,0.0044,0.0046,0.0191,0.0192,0.0194,0.0348,0.035,0.0353,0.0358,0.0355,0.0353,0.0351,0.0379,0.0382,0.0385,0,0,0,0,0,0,0,0,0,0,0,0,0,0.0146,0.0046,0.019,0.0215,0.0219,0.0348,0.035,0.0353,0.0358,0.0355,0.0352,0.035,0.0378,0.0381,0.0385,0.0468,0,0,0.0397,0.0399,0,0,0,0,0,0,0,0,0.014,0.0151,0.021,0.0214,0.0218,0.033,0.0309,0.0385,0.0359,0.0306,0.0352,0.0348,0.0353,0.0358,0.0397,0.0469,0.047,0.0397,0.04,0.0401,0.0402,0,0,0,0,0,0,0,0.0132,0.0145,0.0254,0.0212,0.0217,0.027,0.028,0.0325,0.0342,0.031,0.0311,0.0329,0.0354,0.0394,0.0397,0.047,0.0397,0.04,0.0403,0.0404,0.0597,0.06,0,0,0,0,0,0,0.0108,0.0138,0.0249,0.0258,0.017,0.0274,0.0285,0.0297,0.0344,0.035,0.0331,0.0328,0.0389,0.0393,0.0398,0.0362,0.0401,0.0405,0.0407,0.0594,0.0598,0.0601,0,0,0,0,0,0,0.0104,0.0116,0.0242,0.0201,0.0221,0.0279,0.0293,0.0302,0.0313,0.0361,0.0363,0.0328,0.0386,0.0393,0.0459,0.0368,0.0406,0.041,0.0591,0.0595,0.0599,0.0377,0,0,0,0,0,0,0.0099,0.0113,0.0105,0.02,0.0222,0.03,0.0296,0.0307,0.033,0.0327,0.0361,0.0362,0.0385,0.0454,0.0463,0.0374,0.0413,0.0588,0.0593,0.0598,0.038,0.0373,0.0366,0,0,0,0,0,0.0093,0.0089,0.0103,0.0116,0.0211,0.0301,0.0318,0.035,0.0332,0.0346,0.0395,0.0359,0.0492,0.0461,0.047,0.0379,0.0585,0.0591,0.0598,0.0384,0.0374,0.0366,0,0,0,0,0,0,0.0022,0.0093,0.0109,0.0126,0.02,0.03,0.0305,0.034,0.0394,0.0374,0.0412,0.0421,0.0429,0.0492,0.0456,0.0471,0.0526,0.0535,0.0361,0.0352,0.0345,0.0297,0.0416,0,0,0,0,0,0.0005,0.0009,0.0107,0.0116,0.0143,0.0222,0.0256,0.0289,0.0355,0.0373,0.04,0.0445,0.0476,0.0483,0.0535,0.0558,0.0612,0.0517,0.0509,0.0501,0.0484,0.0547,0.054,0.0622,0.0622,0.0622,0,0,-0.003,0.0017,0.0013,0.01,0.0146,0.0187,0.0233,0.0276,0.0282,0.0369,0.0367,0.0417,0.0489,0.0498,0.0506,0.0523,0.051,0.051,0.05,0.0487,0.0552,0.0543,0.0534,0.0626,0.0625,0.0625,0,0,-0.0065,-0.0048,-0.0044,0.0014,0.0093,0.0143,0.0148,0.024,0.0238,0.0295,0.0329,0.0351,0.0425,0.0434,0.0452,0.0461,0.0474,0.0469,0.0364,0.0424,0.0414,0.0407,0.0442,0.0439,0.0455,0.0455,0.0455,0,-0.0104,-0.0089,-0.0025,0.0012,0.0023,0.0111,0.0118,0.0158,0.0254,0.0245,0.0267,0.0353,0.0382,0.0373,0.0357,0.042,0.047,0.0357,0.0401,0.0396,0.0391,0.043,0.0429,0.0445,0.0446,0.0447,0.0448,0,-0.0115,-0.011,-0.0107,-0.0054,-0.0022,-0.0004,0.0059,0.0075,0.0082,0.0123,0.0124,0.0204,0.0255,0.0244,0.0285,0.0258,0.0306,0.0373,0.0385,0.0367,0.0412,0.0415,0.0431,0.0434,0.0437,0.044,0,0,-0.0197,-0.0134,-0.0139,-0.0129,-0.0072,-0.0032,-0.0056,-0.0036,-0.0036,0.0004,-0.0006,0.0006,0.0052,0.0085,0.0131,0.0149,0.013,0.0224,0.0232,0.0191,0.0245,0.0238,0.0242,0.0197,0.0197,0.0197,0.0275,0,-0.0239,-0.0214,-0.0183,-0.0186,-0.0177,-0.0139,-0.0148,-0.012,-0.0097,-0.0067,-0.0054,-0.001,-0.0007,0.0025,0.0026,0.0128,0.0136,0.0102,0.0331,0.0337,0.0275,0.0244,0.023,0.0295,0.0279,0.028,0.028,0,-0.0264,-0.0251,-0.0274,-0.0252,-0.0248,-0.0234,-0.0246,-0.0225,-0.0185,-0.0165,-0.0151,-0.0087,-0.0088,-0.0034,0.004,0.0021,0.0103,0.0171,0.0178,0.0248,0.0336,0.0327,0.0303,0.0287,0.0287,0.0286,0.0286,0,-0.0345,-0.0319,-0.0358,-0.0348,-0.03,-0.0323,-0.03,-0.0266,-0.0236,-0.0196,-0.0157,-0.014,-0.0087,-0.0018,0.0062,0.0077,0.0169,0.0237,0.0298,0.03,0.0371,0.0378,0.0304,0.0304,0.0304,0.0304,0.0304,0,-0.0403,-0.042,-0.0385,-0.0392,-0.0398,-0.0362,-0.0345,-0.0317,-0.0257,-0.0213,-0.0189,-0.0155,-0.0073,-0.0017,0.0054,0.0152,0.0169,0.0258,0.0314,0.0297,0.0296,0.0375,0.0382,0.0307,0.0306,0.0305,0.0305,0,-0.0458,-0.0454,-0.0458,-0.044,-0.042,-0.0412,-0.0322,-0.0284,-0.0251,-0.0187,-0.017,-0.0138,-0.0087,-0.0023,0.0105,0.0164,0.0261,0.0302,0.0247,0.0293,0.0357,0.0353,0.0397,0.0397,0.0397,0.0398,0.0398,0,-0.0479,-0.0494,-0.0471,-0.0443,-0.0428,-0.0385,-0.0335,-0.0278,-0.0233,-0.0185,-0.0162,-0.0116,-0.0103,0.0024,0.0146,0.0263,0.0264,0.0332,0.0355,0.0313,0.0364,0.036,0.0356,0.0368,0.0368,0.0368,0.0368,0,-0.0502,-0.0504,-0.0497,-0.0439,-0.0394,-0.0325,-0.0265,-0.0235,-0.018,-0.0157,-0.0148,-0.0144,-0.0048,0.0028,0.0162,0.025,0.0302,0.0336,0.0331,0.0334,0.029,0.0339,0.0335,0.0367,0.0368,0.0368,0.0368,0.0368,-0.0501,-0.0492,-0.0468,-0.0405,-0.0343,-0.0273,-0.0228,-0.0195,-0.0151,-0.0148,-0.0165,-0.0146,-0.0133,0.007,0.0169,0.0339,0.0347,0.0384,0.0383,0.0383,0.0352,0.031,0.0385,0.0385,0.0385,0.0385,0.0385,0,-0.0473,-0.0449,-0.0409,-0.0335,-0.026,-0.0231,-0.017,-0.0162,-0.0149,-0.0139,-0.0165,-0.0115,-0.0058,0.0041,0.0296,0.0387,0.042,0.0412,0.0402,0.0401,0.0401,0.037,0.0408,0.0409,0.0409,0.041,0,0,-0.0449,-0.0414,-0.0394,-0.0265,-0.0203,-0.012,-0.0096,-0.0135,-0.0121,-0.0127,-0.0081,-0.0172,-0.0051,0.0084,0.0168,0.0322,0.0369,0.0368,0.0336,0.0313,0.0313,0.0364,0.0313,0,0,0,0,0]}],[{"header":{"parameterUnit":"m.s-1","parameterCategory":2,"la1":30.2991,"la2":30.254,"lo1":-89.0895,"lo2":-89.0444,"dy":0.0017,"dx":0.0017,"nx":28,"ny":28,"refTime":"2024-07-30T03:00:00:Z","depth":"4","parameterNumber":2,"parameterNumberName":"U-component_of_CURRENTS"},"data":[0,0,0,0,0,0,0,0,0,0,0,0,0,0,0,0,0,0,0,0,0,0,0,0,0,0,0,0,0,0,0,0,0,0,0,0,0,0,0,0,0,0,0,0,0,0,0,0,0,0,0,0,0,0,0,0,0,0,-0.113,-0.1131,0,-0.123,-0.1231,-0.1232,-0.1271,-0.1271,-0.1271,-0.1271,-0.1277,-0.1278,-0.1278,0,0,0,0,0,0,0,0,0,0,0,0,0,-0.104,-0.1041,-0.113,-0.1131,-0.1133,-0.1229,-0.1231,-0.1232,-0.1271,-0.1271,-0.1271,-0.1271,-0.1277,-0.1278,-0.1278,0,0,0,0,0,0,0,0,0,0,0,0,0,-0.1103,-0.1041,-0.113,-0.1164,-0.1168,-0.1229,-0.1231,-0.1232,-0.1271,-0.1271,-0.1271,-0.127,-0.1277,-0.1278,-0.1278,-0.1288,0,0,-0.128,-0.128,0,0,0,0,0,0,0,0,-0.1099,-0.1106,-0.1158,-0.1162,-0.1167,-0.1238,-0.1202,-0.1247,-0.1271,-0.1232,-0.1271,-0.127,-0.1256,-0.1259,-0.1279,-0.1288,-0.1289,-0.128,-0.128,-0.1281,-0.1281,0,0,0,0,0,0,0,-0.1094,-0.1102,-0.1169,-0.1159,-0.1165,-0.1197,-0.1205,-0.1211,-0.1242,-0.1235,-0.1238,-0.125,-0.1258,-0.1278,-0.1279,-0.1289,-0.128,-0.1281,-0.1281,-0.1281,-0.1379,-0.1381,0,0,0,0,0,0,-0.108,-0.1098,-0.1166,-0.1172,-0.1132,-0.1199,-0.1208,-0.1215,-0.1245,-0.125,-0.1251,-0.1252,-0.1277,-0.1278,-0.1279,-0.1327,-0.1281,-0.1281,-0.1281,-0.1377,-0.138,-0.1382,0,0,0,0,0,0,-0.1078,-0.1085,-0.1162,-0.1138,-0.115,-0.12,-0.1209,-0.1217,-0.1253,-0.1257,-0.126,-0.1279,-0.1277,-0.1278,-0.1307,-0.1326,-0.1281,-0.1282,-0.1374,-0.1378,-0.1381,-0.14,0,0,0,0,0,0,-0.1075,-0.1084,-0.1099,-0.1137,-0.1151,-0.1207,-0.1209,-0.1219,-0.126,-0.1263,-0.1282,-0.1282,-0.1277,-0.1306,-0.1307,-0.1326,-0.1282,-0.1371,-0.1376,-0.138,-0.1396,-0.1403,-0.1409,0,0,0,0,0,-0.1071,-0.1097,-0.1099,-0.1108,-0.1165,-0.1208,-0.1218,-0.1253,-0.1262,-0.1283,-0.1302,-0.1282,-0.1334,-0.1308,-0.1309,-0.1328,-0.1369,-0.1374,-0.1379,-0.1393,-0.1402,-0.1409,0,0,0,0,0,0,-0.1074,-0.1104,-0.1108,-0.1143,-0.1173,-0.1214,-0.1248,-0.1264,-0.1299,-0.1307,-0.1304,-0.1306,-0.1338,-0.1341,-0.1312,-0.1375,-0.1352,-0.1357,-0.1362,-0.137,-0.1377,-0.1349,-0.1283,0,0,0,0,0,-0.1078,-0.1099,-0.113,-0.1158,-0.1176,-0.1212,-0.124,-0.1261,-0.1291,-0.1308,-0.132,-0.1341,-0.136,-0.137,-0.1387,-0.1415,-0.1402,-0.1435,-0.1441,-0.1447,-0.143,-0.1449,-0.1454,-0.1399,-0.1399,-0.1399,0,0,-0.1086,-0.1106,-0.1119,-0.1159,-0.1188,-0.1215,-0.1229,-0.1276,-0.1296,-0.13,-0.1339,-0.136,-0.1375,-0.141,-0.1425,-0.1412,-0.1458,-0.1453,-0.1457,-0.1437,-0.1455,-0.1459,-0.1464,-0.1402,-0.1402,-0.1401,0,0,-0.1101,-0.113,-0.1147,-0.1174,-0.1218,-0.124,-0.1254,-0.1301,-0.1323,-0.1362,-0.1374,-0.1404,-0.1438,-0.145,-0.1459,-0.1514,-0.1491,-0.1536,-0.1542,-0.1561,-0.1565,-0.1568,-0.1553,-0.1555,-0.1539,-0.154,-0.154,0,-0.1109,-0.113,-0.1161,-0.1184,-0.1209,-0.1248,-0.1271,-0.1302,-0.1351,-0.1369,-0.1376,-0.1446,-0.145,-0.1488,-0.1506,-0.1522,-0.1525,-0.1503,-0.1566,-0.1568,-0.1571,-0.1555,-0.1557,-0.1541,-0.1541,-0.1541,-0.1541,0,-0.1126,-0.1151,-0.1171,-0.12,-0.1233,-0.1268,-0.1303,-0.1338,-0.1368,-0.1394,-0.1448,-0.1473,-0.151,-0.1528,-0.1526,-0.1562,-0.1555,-0.1567,-0.1533,-0.1577,-0.1559,-0.156,-0.1543,-0.1543,-0.1542,-0.1542,0,0,-0.1118,-0.1168,-0.1177,-0.1186,-0.1247,-0.127,-0.1311,-0.1353,-0.1376,-0.1432,-0.1461,-0.1508,-0.1533,-0.1546,-0.1567,-0.1579,-0.1591,-0.158,-0.1581,-0.1543,-0.1617,-0.1489,-0.1477,-0.1623,-0.1623,-0.1624,-0.1594,0,-0.112,-0.115,-0.1184,-0.1216,-0.1233,-0.1282,-0.1311,-0.1357,-0.1398,-0.1436,-0.1481,-0.1519,-0.154,-0.1561,-0.1583,-0.1592,-0.1596,-0.1596,-0.16,-0.1599,-0.1461,-0.1475,-0.1626,-0.1595,-0.1595,-0.1595,-0.1595,0,-0.1121,-0.114,-0.1167,-0.1207,-0.1222,-0.1249,-0.1303,-0.1334,-0.1397,-0.1431,-0.1491,-0.1527,-0.1566,-0.1572,-0.161,-0.1616,-0.1611,-0.1611,-0.1611,-0.1478,-0.1472,-0.1547,-0.1596,-0.1596,-0.1596,-0.1596,-0.1596,0,-0.1081,-0.1129,-0.1145,-0.1163,-0.1216,-0.1239,-0.1272,-0.1334,-0.136,-0.1428,-0.1453,-0.1526,-0.1552,-0.1582,-0.1597,-0.1609,-0.1616,-0.1633,-0.151,-0.1501,-0.1615,-0.1612,-0.1638,-0.1638,-0.1638,-0.1638,-0.1638,0,-0.1056,-0.1075,-0.1127,-0.1135,-0.1151,-0.1208,-0.1238,-0.1278,-0.1342,-0.1367,-0.1447,-0.1469,-0.1557,-0.1581,-0.1594,-0.1545,-0.162,-0.149,-0.1482,-0.1626,-0.1625,-0.1615,-0.1612,-0.1637,-0.1637,-0.1637,-0.1638,0,-0.1004,-0.1042,-0.1058,-0.1113,-0.1129,-0.1139,-0.1203,-0.1226,-0.1293,-0.1326,-0.1348,-0.1431,-0.1448,-0.1508,-0.1537,-0.1512,-0.1493,-0.1456,-0.1581,-0.1585,-0.1362,-0.1362,-0.1302,-0.1297,-0.1293,-0.1289,-0.1287,0,-0.0975,-0.0981,-0.1026,-0.1028,-0.1053,-0.1084,-0.1107,-0.1187,-0.1214,-0.1287,-0.1291,-0.1332,-0.1376,-0.1307,-0.1386,-0.1383,-0.1376,-0.1356,-0.1368,-0.1327,-0.1327,-0.1333,-0.1338,-0.128,-0.1279,-0.1278,-0.1277,0,-0.0918,-0.0944,-0.0954,-0.0958,-0.0976,-0.0994,-0.1035,-0.1041,-0.1128,-0.1203,-0.1183,-0.1183,-0.1188,-0.1213,-0.1215,-0.1224,-0.1368,-0.1314,-0.1322,-0.1333,-0.1301,-0.1305,-0.1315,-0.1263,-0.1265,-0.1266,-0.1267,0,-0.0876,-0.0865,-0.0881,-0.0874,-0.089,-0.0885,-0.0922,-0.0942,-0.0971,-0.1061,-0.1049,-0.1093,-0.1161,-0.1127,-0.1138,-0.1125,-0.1111,-0.1086,-0.1107,-0.1123,-0.1082,-0.1016,-0.0863,0,0,0,0,0,-0.0828,-0.0808,-0.0797,-0.0775,-0.0788,-0.0799,-0.0865,-0.0915,-0.0999,-0.0946,-0.0992,-0.0986,-0.0971,-0.1002,-0.0952,-0.1072,-0.113,-0.101,-0.1116,-0.1184,-0.12,-0.1171,0,0,0,0,0,0,-0.0792,-0.0785,-0.077,-0.0696,-0.0663,-0.0674,-0.0711,-0.0777,-0.0757,-0.0842,-0.0838,-0.0902,-0.0909,-0.0967,-0.0918,-0.093,-0.0972,-0.1048,-0.1044,-0.1175,-0.1189,-0.1203,-0.1179,0,0,0,0,0]},{"header":{"parameterUnit":"m.s-1","parameterCategory":2,"la1":30.2991,"la2":30.254,"lo1":-89.0895,"lo2":-89.0444,"dy":0.0017,"dx":0.0017,"nx":28,"ny":28,"refTime":"2024-07-30T03:00:00:Z","depth":"4","parameterNumber":3,"parameterNumberName":"V-component_of_CURRENTS"},"data":[0,0,0,0,0,0,0,0,0,0,0,0,0,0,0,0,0,0,0,0,0,0,0,0,0,0,0,0,0,0,0,0,0,0,0,0,0,0,0,0,0,0,0,0,0,0,0,0,0,0,0,0,0,0,0,0,0,0,-0.0017,-0.0017,0,-0.001,-0.001,-0.001,0.0026,0.0027,0.0028,0.0029,0.0045,0.0045,0.0044,0,0,0,0,0,0,0,0,0,0,0,0,0,-0.0041,-0.004,-0.0017,-0.0017,-0.0017,-0.001,-0.001,-0.001,0.0026,0.0027,0.0028,0.0029,0.0045,0.0045,0.0044,0,0,0,0,0,0,0,0,0,0,0,0,0,-0.0032,-0.004,-0.0017,0.0002,0.0004,-0.001,-0.001,-0.0009,0.0026,0.0027,0.0029,0.003,0.0045,0.0045,0.0044,0.0015,0,0,0.0042,0.0042,0,0,0,0,0,0,0,0,-0.0032,-0.0031,-0.0001,0.0001,0.0003,0.0009,-0.0012,-0.0001,0.0026,0.0017,0.0029,0.003,0.0033,0.0033,0.0032,0.0016,0.0016,0.0042,0.0042,0.0042,0.0042,0,0,0,0,0,0,0,-0.0033,-0.0031,-0.0014,-0.0001,0.0001,-0.0004,-0.0001,-0.001,0.0018,0.0018,0.0021,0.0021,0.0034,0.0032,0.0032,0.0017,0.0042,0.0042,0.0042,0.0041,0.0017,0.0016,0,0,0,0,0,0,-0.0033,-0.0032,-0.0015,-0.0014,-0.0012,-0.0004,-0.0001,0.0005,0.0018,0.0021,0.002,0.0023,0.0032,0.0033,0.0033,0.0019,0.0042,0.0041,0.0041,0.0017,0.0017,0.0016,0,0,0,0,0,0,-0.0033,-0.0031,-0.0015,-0.0023,-0.0021,-0.0005,0.0002,0.0005,0.001,0.0019,0.0023,0.0023,0.0033,0.0034,0.0023,0.002,0.0041,0.004,0.0017,0.0017,0.0016,-0.0021,0,0,0,0,0,0,-0.0034,-0.0031,-0.0032,-0.0023,-0.0021,-0.0028,0.0,0.0004,0.0008,0.0012,0.0022,0.0025,0.0034,0.0024,0.0023,0.0019,0.004,0.0018,0.0017,0.0017,-0.0019,-0.0022,-0.0025,0,0,0,0,0,-0.0035,-0.0038,-0.0032,-0.0031,-0.002,-0.0029,-0.0029,-0.0013,0.0007,-0.0001,0.0009,0.0025,0.002,0.0022,0.0021,0.0018,0.0018,0.0017,0.0017,-0.0018,-0.0022,-0.0025,0,0,0,0,0,0,-0.0045,-0.0034,-0.0028,-0.0026,-0.0031,-0.0022,-0.0026,-0.0016,-0.0015,-0.0007,0.0009,0.0011,0.0002,0.0012,0.0015,0.0011,0.0026,0.0025,0.0001,-0.0003,-0.0006,-0.0005,0.004,0,0,0,0,0,-0.005,-0.005,-0.0045,-0.0046,-0.0047,-0.0038,-0.0039,-0.0031,-0.0026,-0.0023,-0.0016,-0.0006,-0.0005,-0.0002,-0.0004,-0.0014,0.001,-0.0012,-0.0015,-0.0018,-0.0017,0.0013,0.0013,0.0014,0.0014,0.0014,0,0,-0.0056,-0.005,-0.005,-0.005,-0.0048,-0.0059,-0.0035,-0.0039,-0.0045,-0.0024,-0.0031,-0.0025,-0.0012,-0.0021,-0.0022,-0.001,-0.0007,-0.0019,-0.0021,-0.0019,0.0012,0.0012,0.0012,0.0013,0.0014,0.0014,0,0,-0.0076,-0.0061,-0.0075,-0.008,-0.0083,-0.0075,-0.0077,-0.0074,-0.0067,-0.0082,-0.006,-0.0058,-0.0061,-0.0049,-0.0043,-0.0066,-0.003,-0.0059,-0.0069,-0.0041,-0.004,-0.004,-0.0014,-0.0011,-0.0054,-0.0054,-0.0054,0,-0.0086,-0.0097,-0.0083,-0.0101,-0.0107,-0.0083,-0.0104,-0.0097,-0.0099,-0.0101,-0.0089,-0.0088,-0.0075,-0.0077,-0.0074,-0.0074,-0.0047,-0.0058,-0.0044,-0.0043,-0.0042,-0.0016,-0.0012,-0.0056,-0.0055,-0.0055,-0.0055,0,-0.012,-0.0132,-0.0139,-0.0149,-0.0157,-0.0169,-0.0159,-0.0162,-0.0149,-0.0143,-0.0149,-0.0135,-0.013,-0.0121,-0.0102,-0.0087,-0.0068,-0.0057,-0.0035,-0.0044,-0.0016,-0.0011,-0.0058,-0.0058,-0.0057,-0.0057,0,0,-0.0137,-0.0159,-0.0164,-0.0185,-0.0183,-0.0197,-0.02,-0.0206,-0.0217,-0.0203,-0.0219,-0.0196,-0.0177,-0.0168,-0.0142,-0.0109,-0.0075,-0.0072,-0.007,-0.0047,-0.0006,-0.0,0.0006,-0.0054,-0.0053,-0.0052,0.0009,0,-0.0171,-0.0217,-0.0214,-0.0258,-0.028,-0.0263,-0.0278,-0.0277,-0.0268,-0.0277,-0.0241,-0.025,-0.0196,-0.0199,-0.0153,-0.0111,-0.0063,-0.0092,0.0001,0.0003,0.0009,0.0011,-0.005,0.0013,0.0014,0.0015,0.0016,0,-0.021,-0.0235,-0.0284,-0.0323,-0.0332,-0.0351,-0.037,-0.038,-0.0368,-0.0364,-0.0342,-0.0318,-0.0279,-0.0232,-0.0135,-0.0153,-0.007,-0.0024,-0.002,0.0002,0.0018,0.0026,0.0025,0.0024,0.0023,0.0023,0.0022,0,-0.024,-0.0287,-0.0328,-0.034,-0.0373,-0.0394,-0.0405,-0.0408,-0.0423,-0.0416,-0.0429,-0.0376,-0.0362,-0.026,-0.0146,-0.0138,-0.0034,-0.0019,0.0069,0.007,0.0064,0.0062,0.0076,0.0076,0.0076,0.0076,0.0076,0,-0.0275,-0.0315,-0.0349,-0.0373,-0.0429,-0.0437,-0.0486,-0.0489,-0.0498,-0.0516,-0.0471,-0.0473,-0.0363,-0.0289,-0.0169,-0.0041,-0.0046,0.0069,0.0088,0.0045,0.0042,0.0067,0.0065,0.0078,0.0078,0.0077,0.0077,0,-0.0307,-0.0327,-0.0382,-0.0427,-0.0446,-0.0486,-0.0533,-0.0563,-0.0568,-0.0588,-0.0588,-0.0546,-0.0457,-0.0335,-0.0187,-0.0086,0.0037,0.0099,0.0038,0.0051,0.0129,0.0125,0.0183,0.0183,0.0184,0.0184,0.0185,0,-0.0332,-0.036,-0.0421,-0.0456,-0.048,-0.0535,-0.0571,-0.0591,-0.0609,-0.0624,-0.0628,-0.0575,-0.052,-0.0325,-0.0189,0.0016,0.0067,0.0129,0.0144,0.0129,0.0141,0.0135,0.013,0.0186,0.0186,0.0186,0.0186,0,-0.0375,-0.0391,-0.043,-0.0493,-0.0541,-0.06,-0.0641,-0.0658,-0.0669,-0.0681,-0.0654,-0.0568,-0.047,-0.0324,-0.0165,-0.0009,0.0073,0.0136,0.0136,0.0151,0.0133,0.0144,0.0138,0.0188,0.0188,0.0188,0.0188,0,-0.0403,-0.0436,-0.0475,-0.0529,-0.0591,-0.0638,-0.0663,-0.0674,-0.0691,-0.0682,-0.0673,-0.0578,-0.0526,-0.0335,-0.0188,-0.0047,-0.0,0.0059,0.0064,0.0063,0.0014,-0.0027,-0.0003,0,0,0,0,0,-0.0428,-0.0457,-0.0509,-0.0568,-0.0624,-0.0654,-0.0698,-0.0708,-0.0712,-0.0689,-0.0676,-0.0577,-0.0395,-0.0333,-0.0188,-0.0166,0.0026,0.001,0.0098,0.02,0.0198,0.0161,0,0,0,0,0,0,-0.0448,-0.0492,-0.0508,-0.0579,-0.062,-0.0682,-0.0706,-0.0712,-0.0687,-0.0677,-0.0584,-0.0536,-0.0361,-0.0479,-0.0187,-0.0149,-0.0069,0.0092,0.0095,0.0202,0.0199,0.0197,0.0159,0,0,0,0,0]}]]